Location: 5810 Zion Rd, Cleves, OH 45002, USA
(39.1922°N, 84.7113°W)
Time: 03:31:26
(UTC-05:00)

Courier 1B Rocket - Pass Details

Date: 12 December 2019
Orbit: 920 x 1202 km, 28.2° (Epoch: 17 January)

Event Time Altitude Azimuth Distance (km) Brightness Sun altitude
Rises 10:12:55 0° 259° (W) 3,693 7.8 19.7°
Reaches altitude 10° 10:16:16 10° 245° (WSW) 2,699 7.3 20.1°
Maximum altitude 10:20:58 21° 198° (SSW) 1,955 7.4 20.5°
Drops below altitude 10° 10:25:33 10° 150° (SSE) 2,612 9.6 21.0°
Sets 10:28:44 0° 135° (SE) 3,542 9.3 21.3°
